Flag for U.S.A. Weather past 2 weeks in Odessa, Texas, U.S.A.

Now
48 °F

Clear.


Feels Like: 42 °F
Forecast: 47 / 80 °F
Wind: 14 mph from South

Location: Odessa-Schlemeyer Field


UV Index: 7 (High)

Visibility: 10 mi


Pressure: 29.83 "Hg

Humidity: 27%

Dew point: 15 °F

Location of OdessaLocation

Historic Weather in Odessa

°F

Odessa temperature yesterday

Maximum temperature yesterday: 66 °F (at 5:53 PM)
Minimum temperature yesterday: 31 °F (at 6:53 AM)
Average temperature yesterday: 50 °F

Past Weeks' High & Low Weather Summary

 TemperatureHumidityPressure
High91 °F (Apr 12, 2:53 PM)87% (Apr 2, 7:53 AM)30.32 "Hg (Apr 2, 7:53 AM)
Low31 °F (Apr 15, 6:53 AM)3% (Apr 10, 4:53 PM)29.54 "Hg (Apr 2, 6:53 PM)
Average65 °F28%29.88 "Hg
* Reported Apr 1 6:53 AM — Apr 16 6:53 AM, Odessa, Weather by CustomWeather, © 2014

Note: Actual official high and low records may vary slightly from our data, if they occured in-between our weather recording intervals... More about our weather records

Advertising

Historic Weather Conditions — Data for Previous 24 hours

 ConditionsComfort  
Time TempWeatherWind HumidityBarometerVisibility
6:53 AM
Apr 16
49 °FClear.16 mph26%29.82 "Hg10 mi
5:53 AM50 °FClear.16 mph25%29.81 "Hg10 mi
4:53 AM51 °FClear.18 mph24%29.82 "Hg10 mi
3:53 AM51 °FClear.14 mph23%29.84 "Hg10 mi
2:53 AM51 °FClear.16 mph21%29.86 "Hg10 mi
1:53 AM52 °FClear.15 mph18%29.89 "Hg10 mi
12:53 AM52 °FClear.13 mph16%29.91 "Hg10 mi
11:53 PM
Apr 15
55 °FClear.20 mph14%29.93 "Hg10 mi
10:53 PM56 °FClear.17 mph13%29.94 "Hg10 mi
9:53 PM57 °FClear.14 mph13%29.95 "Hg10 mi
8:53 PM60 °FSunny.13 mph10%29.95 "Hg10 mi
7:53 PM64 °FSunny.15 mph9%29.96 "Hg10 mi
6:53 PM66 °FSunny.13 mph8%29.98 "Hg10 mi
5:53 PM66 °FSunny.15 mph9%30.01 "Hg10 mi
4:53 PM64 °FSunny.12 mph10%30.05 "Hg10 mi
3:53 PM63 °FSunny.13 mph10%30.10 "Hg10 mi
2:53 PM62 °FSunny.13 mph11%30.14 "Hg10 mi
1:53 PM57 °FSunny.14 mph13%30.19 "Hg10 mi
12:53 PM55 °FSunny.15 mph16%30.22 "Hg10 mi
11:53 AM53 °FSunny.10 mph18%30.25 "Hg10 mi
10:53 AM50 °FSunny.12 mph22%30.28 "Hg10 mi
9:53 AM46 °FSunny.10 mph27%30.29 "Hg10 mi
8:53 AM41 °FSunny.3 mph36%30.30 "Hg8 mi
Weather by CustomWeather, © 2014

See weather overview